GFSGL_925_temp_021.txt.gz
Temp
20 20 20 20 20 19 19 19 19 19 18 18 18 18 18 18 18 17 17 17 17 17 17 17 17 17 17 17 16 16 16 16 13 13 14 14 15 14 14 14 15 14 14
20 20 19 19 19 19 19 19 19 18 18 18 18 18 18 18 17 17 17 17 17 17 17 17 17 17 17 17 16 15 15 15 14 14 13 13 12 12 12 12 12 12 12
20 19 19 19 19 19 19 19 18 18 18 18 18 18 18 17 17 17 16 16 17 17 17 17 17 17 16 14 14 13 14 14 13 13 13 12 11 11 11 11 11 12 12
20 19 19 19 19 19 18 18 18 18 18 19 18 18 17 17 17 16 16 16 16 16 16 17 17 16 15 14 13 13 13 13 13 12 12 12 11 11 11 10 10 11 11
19 19 19 18 19 18 18 18 18 18 19 18 18 18 17 16 16 16 16 16 16 16 15 16 16 16 14 14 13 13 13 13 13 12 12 11 12 11 11 11 11 10 10
19 18 19 18 18 19 19 19 19 19 19 18 17 17 17 16 16 16 16 16 14 14 14 15 15 14 13 13 13 13 13 13 13 12 12 12 12 11 11 11 11 11 11
19 19 18 19 18 20 19 19 19 19 19 18 17 17 17 16 16 16 15 15 14 14 14 14 13 13 13 13 13 13 13 13 13 12 12 12 12 11 11 11 11 11 11
19 18 19 19 19 19 20 19 18 19 19 17 17 17 17 16 17 16 15 14 14 14 14 14 13 13 13 12 13 13 13 13 13 13 12 12 12 11 11 11 11 11 10
19 19 19 19 20 19 19 18 18 18 17 17 17 17 17 16 16 17 15 14 14 14 13 13 13 13 13 13 13 12 13 13 13 13 13 12 12 13 12 12 11 11 10
19 20 20 19 20 19 19 18 18 18 18 17 17 16 16 16 16 16 15 14 14 13 13 13 13 13 13 13 13 13 12 12 13 13 12 12 12 13 13 14 13 11 11
21 20 20 20 20 19 19 18 18 18 17 16 16 16 16 16 16 15 15 15 14 13 13 13 13 13 13 13 14 14 14 13 13 13 12 12 12 12 13 14 14 14 12
21 20 20 20 20 19 19 18 17 17 16 15 15 15 15 15 15 15 15 15 14 14 13 13 13 13 14 14 14 15 14 14 14 13 12 12 13 13 13 14 14 14 14
21 20 20 20 20 19 19 17 17 16 16 14 15 14 14 15 15 15 15 15 14 15 14 13 13 13 14 14 14 14 14 14 14 13 13 13 14 14 14 14 14 14 14
21 20 20 20 19 19 18 18 17 16 15 15 14 14 14 14 15 15 14 14 14 14 14 13 13 13 14 14 13 14 14 14 15 14 14 14 14 14 14 14 14 14 14
21 20 19 19 19 18 18 18 17 17 17 16 15 15 15 14 15 15 15 15 14 15 14 13 13 13 13 13 13 13 14 15 15 15 15 15 14 15 15 15 15 14 14
19 19 19 19 19 19 18 17 17 17 17 17 17 16 16 16 16 16 15 15 15 14 14 13 13 13 12 12 12 13 14 14 15 15 15 15 15 15 15 15 15 15 15
20 19 19 19 18 18 17 18 18 17 18 17 17 17 16 17 16 16 16 15 15 14 14 13 13 13 13 13 12 13 14 14 15 15 15 15 15 15 15 15 15 15 15
21 21 20 19 19 18 18 19 19 19 18 18 17 17 17 17 17 16 16 15 14 14 15 14 13 13 13 12 12 13 14 14 14 15 15 15 15 15 15 15 15 15 15
20 20 19 19 19 20 19 19 20 19 19 19 17 17 17 16 16 16 16 16 14 14 15 15 15 14 14 14 14 14 14 14 15 15 15 15 16 16 15 15 15 16 15
21 22 21 20 19 19 19 19 19 19 19 19 19 18 17 16 15 15 15 15 15 16 16 16 16 16 16 15 15 15 15 15 15 15 16 16 16 16 15 16 15 15 15
19 20 20 19 18 18 19 18 19 19 19 19 20 20 19 18 17 16 16 16 16 16 16 17 17 16 16 17 16 16 15 16 16 16 16 16 15 15 16 16 15 16 16
18 19 19 18 19 18 19 19 18 18 19 19 20 20 20 18 17 17 17 17 17 17 17 17 18 18 18 17 17 17 17 17 17 17 17 17 17 16 16 16 15 15 15
15 17 18 18 19 19 18 19 19 19 18 19 19 19 19 19 18 17 18 18 18 18 18 17 17 18 18 18 18 18 18 18 18 19 18 18 18 17 17 17 17 16 15
14 15 16 17 18 19 19 19 19 19 19 19 19 19 19 19 19 19 20 20 19 19 19 19 19 19 19 19 19 19 19 19 19 19 19 19 18 18 18 17 16 16 16
13 14 14 15 16 16 17 18 19 19 19 19 19 19 19 20 19 18 19 19 18 18 19 19 19 19 19 19 19 19 19 19 19 19 19 19 18 19 19 18 17 17 16
11 12 13 14 14 15 16 17 17 18 18 18 19 19 19 19 20 19 19 19 18 18 18 19 19 20 20 20 21 21 20 20 20 20 20 19 19 19 18 18 18 17 17

GFSGL_925_temp_024.txt.gz
Temp
19 19 19 19 19 19 19 18 19 18 18 18 17 17 17 17 17 17 17 16 16 16 16 16 16 16 16 16 16 15 15 15 14 13 14 14 15 15 14 14 15 15 15
19 20 20 19 19 19 18 18 18 18 18 18 17 18 18 17 17 17 17 16 16 16 16 16 16 16 16 16 15 15 15 15 14 14 13 13 13 14 14 14 14 13 13
19 19 19 19 18 18 18 18 18 18 18 18 18 18 18 18 17 16 16 16 16 16 16 16 17 16 16 15 13 14 14 14 14 13 12 12 12 12 12 12 12 11 12
19 19 18 19 19 18 18 18 18 18 18 18 18 18 17 17 16 16 16 16 15 16 16 17 16 16 15 14 13 14 13 13 13 12 11 11 11 11 11 11 11 11 10
19 19 18 18 18 18 18 18 18 18 18 18 17 17 17 16 16 16 15 15 15 15 16 16 16 16 15 13 13 13 13 13 12 12 12 11 11 11 11 11 11 11 11
18 18 18 18 17 18 18 18 17 18 18 17 18 17 17 16 15 15 15 15 14 14 14 14 14 13 13 13 13 13 13 13 12 12 12 11 11 11 11 11 10 10 11
18 18 18 18 18 18 18 18 18 18 17 17 17 17 17 16 16 15 15 14 14 14 14 13 13 13 13 13 13 13 13 13 12 12 12 12 11 11 11 10 11 11 10
18 18 18 18 18 17 18 18 18 18 18 17 17 17 17 16 15 14 15 14 14 14 14 14 13 13 13 13 13 13 13 13 12 12 12 11 11 11 11 11 11 10 10
18 18 18 18 18 18 18 18 18 17 18 17 17 16 16 16 15 14 14 14 14 13 13 13 13 13 12 13 13 12 12 12 12 12 12 11 11 12 12 11 11 11 10
19 19 19 19 19 18 18 18 18 18 17 17 16 16 16 15 15 14 14 14 13 13 13 13 13 12 12 13 12 12 12 12 12 11 11 11 12 12 12 13 12 12 11
20 19 19 19 19 19 18 18 17 17 16 16 16 15 15 15 15 14 14 14 13 13 13 12 12 12 13 13 14 12 12 12 12 12 11 12 12 12 12 13 13 13 12
20 19 19 19 19 18 18 17 16 16 16 15 15 14 14 15 15 14 14 14 13 13 13 13 12 12 13 13 14 14 14 14 13 12 12 12 12 12 13 13 14 14 14
19 19 20 18 18 18 17 17 16 15 15 14 14 14 14 14 15 14 14 14 13 13 13 13 13 13 13 13 14 14 14 14 13 12 12 11 13 13 13 13 13 14 14
20 19 20 18 18 18 17 17 16 16 15 14 14 13 14 14 14 14 14 14 14 14 13 13 13 13 14 14 13 13 14 14 14 13 12 13 13 12 13 13 13 13 13
20 19 19 18 18 17 17 16 16 16 16 15 15 15 14 14 14 14 14 14 14 14 13 13 13 12 12 12 12 13 13 14 14 14 13 13 13 13 13 13 13 13 13
19 18 19 19 18 18 17 16 17 17 17 16 16 16 15 15 15 14 14 14 15 14 13 12 12 12 12 12 12 13 13 14 14 14 14 14 13 13 14 14 14 14 13
20 19 18 18 18 17 17 17 16 16 16 16 16 16 16 16 15 15 14 14 14 14 13 13 13 13 12 12 12 12 13 14 15 15 15 15 15 14 14 14 14 14 14
21 20 19 19 19 18 18 18 17 17 16 16 16 16 16 16 15 15 14 14 13 14 14 13 13 13 13 13 13 12 13 14 14 15 15 15 15 15 14 14 14 14 14
20 20 19 19 19 19 19 18 18 18 18 17 16 16 16 16 15 15 15 14 13 13 13 14 14 14 14 14 13 12 13 14 14 14 15 15 15 15 14 14 14 15 14
19 20 20 19 19 18 18 18 18 18 18 17 17 16 15 15 15 15 15 15 15 15 14 14 14 14 14 13 12 12 13 13 14 14 14 14 14 14 14 14 14 14 14
17 18 18 17 17 18 18 18 18 18 18 18 19 18 19 18 17 16 16 16 16 16 16 15 15 15 15 15 14 14 13 13 13 13 13 14 14 13 14 14 14 14 14
17 17 17 17 17 17 17 18 19 19 19 19 19 19 18 17 17 17 17 17 17 17 17 17 17 17 17 17 16 15 15 16 16 15 15 15 15 15 14 14 14 14 14
14 15 16 16 17 17 17 17 17 18 19 19 20 19 18 18 17 17 18 18 18 18 18 17 17 17 17 18 18 17 17 17 17 17 16 16 15 15 15 15 15 14 14
14 14 13 14 15 16 17 17 17 18 18 18 19 19 19 19 19 19 19 19 18 18 18 18 18 18 18 18 18 18 18 18 18 18 18 18 17 16 16 15 15 15 15
11 11 12 12 12 13 14 15 16 16 16 17 17 18 18 18 18 19 19 18 18 18 19 19 19 19 19 19 19 19 19 19 19 19 18 18 17 17 16 15 15 15 15
7 7 8 9 10 11 12 13 13 14 13 13 14 15 16 17 17 18 18 17 17 18 18 17 18 19 19 19 19 20 20 20 20 19 19 17 17 16 15 15 15 15 15

GFSGL_925_temp_030.txt.gz
Temp
23 22 22 22 21 21 21 21 20 20 20 20 19 19 19 19 19 18 18 18 18 18 18 18 18 18 19 19 19 17 17 17 18 17 16 15 16 16 16 15 16 17 15
22 22 22 22 21 21 21 20 20 20 20 20 20 20 20 20 19 19 19 19 18 17 18 19 19 18 19 18 18 18 18 18 19 18 14 14 15 15 15 15 15 15 15
22 22 21 21 21 20 20 20 20 20 20 20 20 20 21 20 20 19 19 18 16 17 18 19 19 18 18 18 17 18 18 18 18 16 13 13 13 14 14 14 14 14 13
23 22 21 21 20 20 20 20 20 20 20 20 20 21 20 20 19 19 17 18 18 18 18 19 19 19 19 18 18 18 18 17 17 14 13 12 12 12 13 12 12 12 13
23 22 21 20 20 20 20 20 20 20 20 21 20 20 19 19 18 18 18 18 16 17 18 19 19 18 18 17 18 17 17 16 15 13 12 12 12 12 12 12 12 12 11
22 22 21 21 20 20 20 20 20 20 20 20 20 20 19 19 16 16 16 16 17 17 17 18 16 16 16 14 16 16 16 17 15 14 12 12 12 12 12 12 12 12 12
22 22 21 21 21 20 20 20 20 20 19 19 19 19 19 17 16 15 15 14 15 15 15 15 16 15 14 14 14 15 15 16 15 14 13 13 12 12 12 12 12 12 11
23 22 22 21 21 20 20 20 20 19 19 18 19 19 18 15 14 14 14 14 14 14 14 15 16 14 14 14 14 14 14 14 14 14 13 12 12 11 12 12 12 11 11
23 22 22 22 21 21 21 20 19 18 18 19 19 19 18 15 14 14 14 14 14 13 13 14 14 14 14 15 16 14 12 13 13 13 12 12 11 11 12 12 11 11 11
23 22 22 22 21 21 20 20 19 19 19 20 19 17 15 15 14 14 14 14 13 13 13 13 13 14 13 14 14 13 12 12 12 12 11 11 11 11 11 12 11 12 12
24 23 22 22 21 21 20 19 19 19 20 19 18 17 15 15 14 14 14 14 13 13 12 12 12 13 12 13 13 13 12 11 11 11 11 11 11 11 12 12 13 14 15
23 23 22 21 21 20 19 19 19 19 19 18 18 18 15 14 14 14 14 14 13 14 12 12 12 12 12 12 12 12 12 11 11 11 11 11 11 12 13 14 15 16 16
23 23 22 21 21 20 19 19 19 18 19 19 19 19 16 13 14 14 13 13 13 13 12 12 12 12 12 12 12 12 11 11 11 12 12 12 14 14 14 14 14 15 15
23 22 22 21 21 20 20 20 19 19 19 20 20 19 17 13 13 13 13 13 13 13 12 12 12 12 12 12 12 13 14 14 14 15 15 15 15 14 15 15 15 16 17
23 22 22 21 21 20 20 18 19 18 18 20 20 21 18 14 14 13 13 13 14 13 13 13 13 13 13 13 13 14 15 15 16 16 16 16 16 16 17 17 18 17 18
23 23 23 23 22 22 21 18 17 17 17 17 18 19 18 17 14 14 13 13 14 14 15 16 16 15 15 16 16 16 17 16 16 16 17 18 18 18 19 18 19 19 19
24 24 23 24 23 23 22 21 19 15 16 16 16 16 17 15 14 14 14 14 14 14 16 17 17 17 17 17 18 18 18 17 18 19 19 19 19 19 19 19 19 19 19
24 23 24 25 24 24 23 23 22 20 20 17 15 15 15 15 15 14 14 13 13 14 15 16 17 18 19 19 19 20 19 19 19 20 19 19 19 19 19 20 20 20 20
24 24 25 25 25 24 23 23 23 23 21 20 15 14 14 14 14 14 14 14 14 15 17 17 18 19 19 19 19 19 20 20 19 19 19 19 19 19 20 20 20 20 20
23 23 24 25 24 24 24 24 24 23 23 22 21 18 13 13 13 13 14 16 17 17 17 17 17 18 19 19 19 19 20 19 19 19 20 20 20 19 20 20 20 21 20
25 22 23 24 24 24 24 24 24 24 24 23 23 20 16 19 18 17 17 19 19 20 20 20 20 19 19 19 19 20 19 19 19 19 20 20 20 20 20 20 21 21 21
25 24 24 25 25 24 24 24 24 24 24 24 24 19 18 18 21 20 20 20 20 21 21 20 21 21 20 20 20 20 19 19 19 20 20 20 20 20 20 20 20 20 21
22 24 24 25 24 23 23 24 24 24 24 24 24 20 17 20 22 23 22 21 21 21 21 21 21 21 21 21 20 20 20 20 20 20 20 20 20 20 20 20 20 21 21
20 21 22 23 24 24 24 23 23 22 23 24 24 24 22 21 22 22 22 22 22 21 21 21 21 21 21 21 21 20 20 20 21 21 20 21 21 21 20 21 21 21 21
10 10 11 11 11 13 16 17 19 20 20 20 21 22 22 22 22 21 21 21 21 21 21 21 21 21 20 20 20 21 21 20 19 20 20 21 20 21 21 21 21 21 21
7 6 6 7 7 8 8 8 8 8 8 8 9 10 11 11 12 12 11 12 16 18 19 20 20 19 19 17 16 18 18 18 17 17 17 18 19 20 21 21 21 21 22

GFSGL_925_temp_033.txt.gz
Temp
24 23 22 22 22 22 22 22 22 22 22 22 22 21 21 21 20 20 20 21 20 18 18 19 19 18 20 19 19 17 17 17 17 16 17 17 17 17 17 16 16 16 17
23 23 22 23 23 22 22 22 22 22 22 22 22 21 21 21 20 20 20 21 19 18 18 19 20 19 19 20 19 18 17 17 18 17 16 15 16 16 16 15 15 15 15
24 23 23 23 23 23 22 22 22 22 22 22 22 22 22 22 21 21 20 20 19 19 18 19 20 19 19 19 19 18 17 17 18 18 14 14 15 15 14 14 14 14 15
25 24 23 22 22 22 22 21 21 22 22 22 22 23 23 22 21 20 19 19 18 18 18 19 20 19 19 19 18 18 18 17 17 15 14 13 13 13 13 13 13 13 12
25 24 23 23 22 22 22 21 22 22 22 22 22 22 21 21 20 19 19 18 18 18 17 19 20 20 19 19 19 18 18 17 16 14 13 13 13 13 13 13 12 12 12
24 24 23 23 22 22 21 21 21 22 22 22 21 21 20 19 18 17 17 18 17 18 18 18 17 18 18 18 17 19 17 17 16 14 13 13 13 12 12 12 12 12 12
24 24 23 23 21 21 20 21 22 21 21 21 21 21 19 16 17 16 16 16 17 17 17 17 19 17 16 16 16 16 16 17 16 15 13 13 12 12 12 12 12 12 11
25 24 23 22 21 20 21 22 21 20 20 19 20 19 18 15 15 15 15 15 15 15 15 17 18 16 17 16 16 16 16 16 16 15 14 13 13 12 12 12 12 11 11
24 23 22 21 20 21 22 21 20 20 19 19 20 19 18 14 14 15 14 14 14 14 15 15 16 16 15 15 16 15 14 15 15 14 13 13 13 12 12 12 11 11 11
23 24 24 24 20 22 22 21 20 20 20 20 19 18 16 15 14 14 14 14 13 13 14 14 15 15 15 14 14 13 13 12 13 12 12 12 12 12 12 12 12 12 11
23 24 22 23 23 22 21 20 20 21 21 20 19 18 16 15 14 14 14 14 14 14 13 14 14 14 14 14 14 13 13 12 11 11 11 11 12 12 13 12 12 12 13
25 23 22 21 21 21 21 21 21 20 20 19 19 18 16 14 14 14 14 14 13 14 13 12 13 13 13 13 13 13 12 11 11 11 11 11 11 12 12 12 13 15 16
24 23 22 21 22 21 20 20 21 21 21 21 19 19 16 14 14 13 13 14 14 14 13 12 12 12 13 13 12 12 12 11 11 11 11 11 12 13 13 13 14 15 15
24 23 23 22 22 22 21 19 19 19 19 19 18 18 16 13 13 13 13 13 13 13 12 12 12 12 12 12 11 12 12 12 12 12 12 12 13 14 14 14 15 16 17
24 23 23 23 22 21 17 18 18 17 18 19 19 19 17 15 14 14 15 15 14 12 12 12 12 12 12 11 12 13 13 13 13 13 14 14 15 15 16 16 17 18 19
24 24 24 24 23 22 20 18 17 17 17 18 19 20 18 17 14 14 14 15 14 13 15 16 15 15 15 15 16 15 15 15 15 15 16 17 17 17 17 18 19 19 19
25 25 25 25 23 22 23 22 19 15 17 17 17 17 17 15 14 14 14 14 14 14 16 17 17 18 17 16 15 16 17 16 16 17 17 19 19 19 19 20 20 20 20
25 25 25 25 25 22 21 22 22 20 20 17 16 16 15 14 14 14 14 14 14 15 17 18 18 19 19 18 18 17 18 17 18 18 19 20 20 21 21 21 21 21 21
25 26 26 26 25 24 22 22 21 22 21 18 14 14 14 14 14 14 14 16 17 17 17 18 18 18 18 18 20 19 19 19 19 20 21 21 22 22 21 21 21 21 21
25 26 25 26 25 26 24 22 21 21 22 21 20 16 13 13 12 12 14 16 17 18 18 19 19 18 19 20 20 21 21 21 21 21 21 21 21 21 21 21 22 22 21
26 25 24 26 26 27 26 26 25 24 23 22 22 19 16 18 16 15 17 16 17 19 19 19 19 20 21 21 20 20 20 20 21 21 22 22 21 21 21 22 22 22 22
27 25 26 27 27 27 27 26 26 26 26 25 21 19 19 18 22 20 20 20 21 22 22 21 20 20 21 21 22 22 22 22 22 22 22 22 22 22 22 22 22 22 22
26 26 26 27 26 25 26 27 26 26 26 26 23 20 19 21 22 23 23 23 23 23 23 22 23 23 23 23 22 22 22 22 22 21 21 22 22 22 22 22 22 22 22
18 20 21 23 20 25 26 25 24 24 19 20 23 23 22 23 24 23 23 23 24 24 23 23 23 23 23 22 21 21 20 22 22 22 22 22 22 22 22 22 23 23 23
9 10 11 14 16 16 17 16 15 16 15 15 15 17 17 15 15 14 15 16 16 16 16 16 17 16 16 15 16 16 18 19 21 21 21 21 22 22 22 22 23 23 23
6 6 6 6 6 7 8 8 8 8 8 8 9 9 9 9 9 9 9 10 11 12 12 11 10 8 9 12 12 13 15 16 17 17 18 18 19 20 21 21 22 22 22